TimePST,TemperatureF,Dew PointF,Humidity,Sea Level PressureIn,VisibilityMPH,Wind Direction,Wind SpeedMPH,Gust SpeedMPH,PrecipitationIn,Events,Conditions,WindDirDegrees,DateUTC
12:53 AM,45.0,37.0,74,30.00,10.0,SSE,4.6,-,N/A,,Overcast,160,2014-01-30 08:53:00
1:53 AM,45.0,37.0,74,29.98,10.0,SSW,4.6,-,N/A,,Overcast,200,2014-01-30 09:53:00
2:53 AM,42.1,37.0,82,29.98,10.0,Calm,Calm,-,N/A,,Overcast,0,2014-01-30 10:53:00
3:53 AM,43.0,37.9,82,29.97,10.0,Calm,Calm,-,N/A,,Overcast,0,2014-01-30 11:53:00
4:53 AM,43.0,37.9,82,29.96,10.0,ESE,3.5,-,N/A,,Overcast,120,2014-01-30 12:53:00
5:53 AM,43.0,37.0,80,29.95,10.0,Calm,Calm,-,N/A,,Overcast,0,2014-01-30 13:53:00
6:40 AM,42.1,37.0,82,29.95,10.0,SSE,3.5,-,N/A,,Overcast,160,2014-01-30 14:40:00
6:49 AM,42.8,37.4,81,29.95,10.0,Calm,Calm,-,N/A,,Overcast,0,2014-01-30 14:49:00
6:53 AM,43.0,37.0,80,29.96,10.0,Calm,Calm,-,N/A,,Overcast,0,2014-01-30 14:53:00
7:53 AM,43.0,37.9,82,29.97,10.0,Calm,Calm,-,N/A,,Overcast,0,2014-01-30 15:53:00
8:53 AM,44.1,37.9,79,29.99,10.0,Calm,Calm,-,N/A,,Mostly Cloudy,0,2014-01-30 16:53:00
9:53 AM,46.0,39.0,76,29.99,10.0,North,3.5,-,0.00,,Overcast,360,2014-01-30 17:53:00
10:53 AM,46.9,34.0,61,29.99,10.0,North,4.6,-,N/A,,Mostly Cloudy,360,2014-01-30 18:53:00
11:48 AM,50.0,35.6,58,29.97,10.0,WNW,4.6,-,N/A,,Mostly Cloudy,300,2014-01-30 19:48:00
11:53 AM,48.9,34.0,56,29.98,10.0,NW,3.5,-,N/A,,Mostly Cloudy,320,2014-01-30 19:53:00
12:53 PM,48.9,34.0,56,29.96,10.0,Calm,Calm,-,N/A,,Mostly Cloudy,0,2014-01-30 20:53:00
1:53 PM,50.0,33.1,52,29.94,10.0,NW,5.8,-,N/A,,Mostly Cloudy,320,2014-01-30 21:53:00
2:53 PM,51.1,33.1,50,29.94,10.0,NNW,5.8,-,N/A,,Mostly Cloudy,330,2014-01-30 22:53:00
3:53 PM,50.0,30.9,48,29.95,10.0,North,10.4,-,N/A,,Mostly Cloudy,350,2014-01-30 23:53:00
4:53 PM,48.0,30.9,52,29.96,10.0,NNW,10.4,-,N/A,,Mostly Cloudy,340,2014-01-31 00:53:00
5:53 PM,45.0,30.9,58,29.97,10.0,NNW,6.9,-,N/A,,Scattered Clouds,340,2014-01-31 01:53:00
6:53 PM,39.9,30.9,70,29.99,10.0,NE,4.6,-,N/A,,Scattered Clouds,40,2014-01-31 02:53:00
7:53 PM,37.9,30.0,73,30.00,10.0,Calm,Calm,-,N/A,,Partly Cloudy,0,2014-01-31 03:53:00
8:53 PM,37.9,30.9,76,30.02,10.0,Calm,Calm,-,N/A,,Partly Cloudy,0,2014-01-31 04:53:00
9:53 PM,35.1,28.9,78,30.03,10.0,Calm,Calm,-,N/A,,Clear,0,2014-01-31 05:53:00
10:53 PM,34.0,28.9,82,30.04,10.0,Calm,Calm,-,N/A,,Overcast,0,2014-01-31 06:53:00
11:53 PM,35.1,30.0,82,30.04,10.0,Calm,Calm,-,N/A,,Overcast,0,2014-01-31 07:53:00